KO5S Weather Reports


time (UTC)temp
C
wind
direction
speed
KPH
gust
KPH
rain 1hr
cm
rain 24hr
cm
rain mn
cm
humidity
%
barometer
mb
20260504045815 12 0.0 0.0 0.00 0.00 0.00 89 1015.0
20260504044815 12 0.0 0.0 0.00 0.00 0.00 89 1015.0
20260504043815 12 0.0 0.0 0.00 0.00 0.00 88 1015.0
20260504042815 12 0.0 0.0 0.00 0.00 0.00 88 1015.0
20260504041815 12 0.0 0.0 0.00 0.00 0.00 87 1015.0
20260504040815 12 0.0 0.0 0.00 0.00 0.00 87 1014.9
20260504035835 13 0.0 0.0 0.00 0.00 0.00 87 1015.0
20260504034835 13 0.0 0.0 0.00 0.00 0.00 87 1014.9
20260504033815 13 0.0 0.0 0.00 0.00 0.00 85 1014.8
20260504032815 13 0.0 0.0 0.00 0.00 0.00 85 1014.8
20260504031815 13 0.0 0.0 0.00 0.00 0.00 84 1014.7
20260504030835 13 0.0 0.0 0.00 0.00 0.00 84 1014.7
20260504025815 14 0.0 0.0 0.00 0.00 0.00 84 1014.7
20260504024835 14 0.0 0.0 0.00 0.00 0.00 84 1014.5
20260504023816 14 0.0 0.0 0.00 0.00 0.00 83 1014.6
20260504022815 15 0.0 0.0 0.00 0.00 0.00 81 1014.4
20260504021815 15 0.0 0.0 0.00 0.00 0.00 80 1014.4
20260504020835 15 0.0 0.0 0.00 0.00 0.00 79 1014.4
20260504015815 16 0.0 0.0 0.00 0.00 0.00 78 1014.3
20260504014815 16 0.0 0.0 0.00 0.00 0.00 77 1014.2
20260504013815 16 0.0 0.0 0.00 0.00 0.00 74 1014.2
20260504012815 17 0.0 0.0 0.00 0.00 0.00 72 1014.0
20260504011815 17 0.0 0.0 0.00 0.00 0.00 71 1014.0
20260504010817 17 0.0 0.0 0.00 0.00 0.00 70 1013.9
20260504005815 18 0.0 0.0 0.00 0.00 0.00 68 1013.8
20260504004835 18 0.0 0.0 0.00 0.00 0.00 66 1013.6
20260504003815 18 0.0 0.0 0.00 0.00 0.00 67 1013.6
20260504002837 20 0.0 0.0 0.00 0.00 0.00 61 1013.4
20260504001815 20 0.0 0.0 0.00 0.00 0.00 61 1013.3
20260504000815 21 0.0 0.0 0.00 0.00 0.00 57 1013.2
20260503235815 21 0.0 0.0 0.00 0.00 0.00 54 1013.2
20260503234815 22 0.0 0.0 0.00 0.00 0.00 52 1013.2
20260503233815 22 0.0 0.0 0.00 0.00 0.00 49 1013.3
20260503232857 22 0.0 0.0 0.00 0.00 0.00 46 1013.3
20260503231835 23 0.0 0.0 0.00 0.00 0.00 47 1013.4
20260503230815 23 0.0 0.0 0.00 0.00 0.00 46 1013.3
20260503225836 23 0.0 0.0 0.00 0.00 0.00 44 1013.3
20260503224815 23 0.0 0.0 0.00 0.00 0.00 44 1013.3
20260503223815 23 41 0.0 3.2 0.00 0.00 0.00 44 1013.3
20260503222815 23 8 1.6 9.7 0.00 0.00 0.00 42 1013.4
20260503221815 24 304 4.8 9.7 0.00 0.00 0.00 42 1013.4
20260503220815 24 0.0 0.0 0.00 0.00 0.00 42 1013.5
20260503215815 24 0.0 0.0 0.00 0.00 0.00 42 1013.5
20260503214815 25 0.0 0.0 0.00 0.00 0.00 40 1013.5
20260503213815 25 312 4.8 8.0 0.00 0.00 0.00 40 1013.6
20260503212815 25 0.0 0.0 0.00 0.00 0.00 38 1013.8
20260503211835 26 146 1.6 6.4 0.00 0.00 0.00 38 1013.8
20260503210835 25 0.0 0.0 0.00 0.00 0.00 42 1014.0
20260503205815 25 344 3.2 6.4 0.00 0.00 0.00 44 1014.1
20260503204855 25 301 4.8 14.5 0.00 0.00 0.00 41 1014.1
20260503203835 25 0.0 0.0 0.00 0.00 0.00 39 1014.3
20260503202815 25 48 1.6 8.0 0.00 0.00 0.00 39 1014.5
20260503201815 25 0.0 0.0 0.00 0.00 0.00 42 1014.7
20260503200815 25 316 6.4 16.1 0.00 0.00 0.00 41 1014.9
20260503195815 25 296 8.0 12.9 0.00 0.00 0.00 39 1015.2
20260503194815 25 319 8.0 12.9 0.00 0.00 0.00 39 1015.3
20260503193835 25 0.0 8.0 0.00 0.00 0.00 41 1015.4
20260503192835 25 7 4.8 9.7 0.00 0.00 0.00 40 1015.4
20260503191815 25 0.0 0.0 0.00 0.00 0.00 40 1015.5
20260503190856 25 175 0.0 3.2 0.00 0.00 0.00 40 1015.7
20260503185815 25 339 6.4 12.9 0.00 0.00 0.00 41 1015.8
20260503184815 25 311 4.8 9.7 0.00 0.00 0.00 41 1015.9
20260503183815 25 286 8.0 12.9 0.00 0.00 0.00 43 1016.1
20260503182815 24 0.0 0.0 0.00 0.00 0.00 42 1016.2
20260503181815 24 343 4.8 8.0 0.00 0.00 0.00 42 1016.3
20260503180855 24 179 0.0 6.4 0.00 0.00 0.00 41 1016.5
20260503175815 24 0.0 0.0 0.00 0.00 0.00 43 1016.7
20260503174815 23 317 11.3 16.1 0.00 0.00 0.00 40 1016.8
20260503173815 23 352 3.2 9.7 0.00 0.00 0.00 40 1016.9
20260503172835 23 273 4.8 12.9 0.00 0.00 0.00 39 1017.0
20260503171815 24 166 3.2 11.3 0.00 0.00 0.00 40 1017.2
20260503170815 23 323 8.0 12.9 0.00 0.00 0.00 39 1017.2
20260503150835 21 2 1.6 8.0 0.00 0.00 0.00 57 1018.0
20260503130815 12 0.0 0.0 0.00 0.00 0.00 93 1017.3
20260503080816 8 0.0 0.0 0.00 0.53 0.00 91 1015.5
20260503072816 8 0.0 0.0 0.00 0.76 0.00 91 1015.1
20260503071816 8 0.0 0.0 0.00 0.76 0.00 91 1015.2
20260503070837 8 0.0 0.0 0.00 0.76 0.00 91 1015.1